Time,TemperatureF,DewpointF,PressureIn,WindDirection,WindDirectionDegrees,WindSpeedMPH,WindSpeedGustMPH,Humidity,HourlyPrecipIn,Conditions,Clouds,dailyrainin,SolarRadiationWatts/m^2,SoftwareType,DateUTC
2013-03-29 00:01:00,21.3,-99.9,30.21,SW,222,0.0,0.0,96,0.00,,,0.00,0.813,,2013-03-29 05:01:00,
2013-03-29 00:11:00,21.3,-99.9,30.20,SW,215,0.0,0.0,96,0.00,,,0.00,0.813,,2013-03-29 05:11:00,
2013-03-29 00:21:00,20.6,-99.9,30.20,SW,228,0.0,0.0,96,0.00,,,0.00,0.813,,2013-03-29 05:21:00,
2013-03-29 00:31:00,19.8,-99.9,30.21,SW,230,1.0,2.1,96,0.00,,,0.00,0.813,,2013-03-29 05:31:00,
2013-03-29 00:41:00,19.6,-99.9,30.21,WSW,241,0.0,0.0,96,0.00,,,0.00,0.752,,2013-03-29 05:41:00,
2013-03-29 00:51:00,19.8,-99.9,30.21,West,268,0.0,0.0,96,0.00,,,0.00,0.81,,2013-03-29 05:51:00,
2013-03-29 01:01:00,20.7,-99.9,30.20,North,1,2.0,3.8,96,0.00,,,0.00,0.813,,2013-03-29 06:01:00,
2013-03-29 01:11:00,20.5,-99.9,30.20,North,0,2.0,3.8,96,0.00,,,0.00,0.813,,2013-03-29 06:11:00,
2013-03-29 01:21:00,20.4,-99.9,30.20,NE,44,1.0,2.1,96,0.00,,,0.00,0.847,,2013-03-29 06:21:00,
2013-03-29 01:31:00,20.2,-99.9,30.20,NNE,24,0.0,0.0,96,0.00,,,0.00,0.813,,2013-03-29 06:31:00,
2013-03-29 01:41:00,20.1,-99.9,30.21,NE,52,0.0,0.0,96,0.00,,,0.00,0.813,,2013-03-29 06:41:00,
2013-03-29 01:51:00,20.0,-99.9,30.21,NNW,334,0.0,0.0,96,0.00,,,0.00,0.813,,2013-03-29 06:51:00,
2013-03-29 02:01:00,20.0,-99.9,30.20,WNW,282,0.0,0.0,96,0.00,,,0.00,0.813,,2013-03-29 07:01:00,
2013-03-29 02:11:00,19.3,-99.9,30.20,SW,228,0.0,2.1,96,0.00,,,0.00,0.813,,2013-03-29 07:11:00,
2013-03-29 02:21:00,18.9,-99.9,30.20,WSW,238,0.0,0.0,96,0.00,,,0.00,0.813,,2013-03-29 07:21:00,
2013-03-29 02:31:00,19.1,-99.9,30.20,NNW,339,0.0,0.0,96,0.00,,,0.00,0.813,,2013-03-29 07:31:00,
2013-03-29 02:41:00,18.4,-99.9,30.20,NW,305,2.0,3.8,96,0.00,,,0.00,0.79,,2013-03-29 07:41:00,
2013-03-29 02:51:00,17.9,-99.9,30.20,NNW,328,2.0,3.8,96,0.00,,,0.00,0.8,,2013-03-29 07:51:00,
2013-03-29 03:01:00,17.8,-99.9,30.19,NNW,334,2.0,3.8,96,0.00,,,0.00,0.759,,2013-03-29 08:01:00,
2013-03-29 03:11:00,17.3,-99.9,30.19,WNW,301,2.0,2.1,96,0.00,,,0.00,0.617,,2013-03-29 08:11:00,
2013-03-29 03:21:00,17.6,-99.9,30.19,North,7,2.0,3.8,95,0.00,,,0.00,0.644,,2013-03-29 08:21:00,
2013-03-29 03:31:00,17.5,-99.9,30.19,North,9,0.0,2.1,95,0.00,,,0.00,0.617,,2013-03-29 08:31:00,
2013-03-29 03:41:00,17.3,-99.9,30.19,NE,36,0.0,2.1,95,0.00,,,0.00,0.613,,2013-03-29 08:41:00,
2013-03-29 03:51:00,16.9,-99.9,30.19,NNW,328,3.0,3.8,94,0.00,,,0.00,0.61,,2013-03-29 08:51:00,
2013-03-29 04:01:00,16.3,-99.9,30.19,North,0,2.0,3.8,95,0.00,,,0.00,0.603,,2013-03-29 09:01:00,
2013-03-29 04:11:00,16.3,-99.9,30.19,NW,307,2.0,2.1,95,0.00,,,0.00,0.6,,2013-03-29 09:11:00,
2013-03-29 04:21:00,16.1,-99.9,30.19,NW,319,2.0,2.1,95,0.00,,,0.00,0.525,,2013-03-29 09:21:00,
2013-03-29 04:31:00,16.2,-99.9,30.18,NW,316,1.0,2.1,94,0.00,,,0.00,0.569,,2013-03-29 09:31:00,
2013-03-29 04:41:00,16.4,-99.9,30.18,NNE,27,1.0,2.1,94,0.00,,,0.00,0.569,,2013-03-29 09:41:00,
2013-03-29 04:51:00,16.1,-99.9,30.18,North,2,2.0,3.8,94,0.00,,,0.00,0.458,,2013-03-29 09:51:00,
2013-03-29 05:01:00,15.9,-99.9,30.18,NW,323,0.0,0.0,94,0.00,,,0.00,0.549,,2013-03-29 10:01:00,
2013-03-29 05:11:00,16.2,-99.9,30.18,NW,322,1.0,2.1,94,0.00,,,0.00,0.59,,2013-03-29 10:11:00,
2013-03-29 05:21:00,16.1,-99.9,30.18,NNE,17,2.0,3.8,94,0.00,,,0.00,0.529,,2013-03-29 10:21:00,
2013-03-29 05:31:00,15.9,-99.9,30.18,NNE,31,3.0,5.4,94,0.00,,,0.00,0.519,,2013-03-29 10:31:00,
2013-03-29 05:41:00,15.7,-99.9,30.18,NE,56,0.0,2.1,94,0.00,,,0.00,0.485,,2013-03-29 10:41:00,
2013-03-29 05:51:00,15.7,-99.9,30.18,NNW,337,2.0,3.8,94,0.00,,,0.00,0.539,,2013-03-29 10:51:00,
2013-03-29 06:01:00,15.5,-99.9,30.17,NNW,348,2.0,3.8,94,0.00,,,0.00,0.478,,2013-03-29 11:01:00,
2013-03-29 06:11:00,15.7,-99.9,30.17,NNE,13,2.0,3.8,94,0.00,,,0.00,0.502,,2013-03-29 11:11:00,
2013-03-29 06:21:00,15.8,-99.9,30.17,NW,325,0.0,0.0,94,0.00,,,0.00,0.515,,2013-03-29 11:21:00,
2013-03-29 06:31:00,15.8,-99.9,30.17,NE,45,2.0,3.8,94,0.00,,,0.00,0.444,,2013-03-29 11:31:00,
2013-03-29 06:41:00,15.8,-99.9,30.17,NE,45,1.0,2.1,94,0.00,,,0.00,0.454,,2013-03-29 11:41:00,
2013-03-29 06:51:00,16.1,-99.9,30.17,NNW,335,1.0,3.8,94,0.00,,,0.00,0.57,,2013-03-29 11:51:00,
2013-03-29 07:01:00,16.2,-99.9,30.18,North,350,2.0,3.8,94,0.00,,,0.00,0.814,,2013-03-29 12:01:00,
2013-03-29 07:11:00,16.0,-99.9,30.18,NNW,342,1.0,2.1,94,0.00,,,0.00,1.627,,2013-03-29 12:11:00,
2013-03-29 07:21:00,16.0,-99.9,30.17,NNE,13,1.0,3.8,94,0.00,,,0.00,3.638,,2013-03-29 12:21:00,
2013-03-29 07:31:00,16.4,-99.9,30.18,North,2,0.0,2.1,94,0.00,,,0.00,6.757,,2013-03-29 12:31:00,
2013-03-29 07:41:00,16.6,-99.9,30.18,NE,38,0.0,2.1,94,0.00,,,0.00,12.44,,2013-03-29 12:41:00,
2013-03-29 07:51:00,16.5,-99.9,30.17,NNW,328,0.0,2.1,94,0.00,,,0.00,20.33,,2013-03-29 12:51:00,
2013-03-29 08:01:00,16.7,-99.9,30.17,NNE,15,0.0,2.1,94,0.00,,,0.00,31.11,,2013-03-29 13:01:00,
2013-03-29 08:11:00,16.4,-99.9,30.17,ENE,67,2.0,3.8,94,0.00,,,0.00,40.98,,2013-03-29 13:11:00,
2013-03-29 08:21:00,16.8,-99.9,30.17,WNW,302,0.0,0.0,94,0.00,,,0.00,56.26,,2013-03-29 13:21:00,
2013-03-29 08:31:00,17.1,-99.9,30.17,North,5,0.0,0.0,94,0.00,,,0.00,64.99,,2013-03-29 13:31:00,
2013-03-29 08:41:00,16.8,-99.9,30.17,NNE,27,0.0,0.0,94,0.00,,,0.00,81,,2013-03-29 13:41:00,
2013-03-29 08:51:00,17.3,-99.9,30.17,NE,51,0.0,0.0,94,0.00,,,0.00,93.8,,2013-03-29 13:51:00,
2013-03-29 09:01:00,17.6,-99.9,30.17,North,7,0.0,2.1,93,0.00,,,0.00,110.2,,2013-03-29 14:01:00,
2013-03-29 09:11:00,17.9,-99.9,30.17,NNE,25,1.0,2.1,94,0.00,,,0.00,141,,2013-03-29 14:11:00,
2013-03-29 09:21:00,18.1,-99.9,30.17,NNE,18,2.0,3.8,93,0.00,,,0.00,153,,2013-03-29 14:21:00,
2013-03-29 09:31:00,18.2,-99.9,30.17,ENE,77,1.0,2.1,94,0.00,,,0.00,179.8,,2013-03-29 14:31:00,
2013-03-29 09:41:00,18.7,-99.9,30.17,NE,43,0.0,2.1,94,0.00,,,0.00,210.3,,2013-03-29 14:41:00,
2013-03-29 09:51:00,19.2,-99.9,30.16,North,3,0.0,0.0,94,0.00,,,0.00,235.7,,2013-03-29 14:51:00,
2013-03-29 10:01:00,19.4,-99.9,30.16,ENE,60,1.0,3.8,93,0.00,,,0.00,274.5,,2013-03-29 15:01:00,
2013-03-29 10:11:00,20.6,-99.9,30.16,North,7,0.0,0.0,94,0.00,,,0.00,289.4,,2013-03-29 15:11:00,
2013-03-29 10:21:00,21.5,-99.9,30.16,North,351,0.0,0.0,94,0.00,,,0.00,312.2,,2013-03-29 15:21:00,
2013-03-29 10:31:00,22.5,-99.9,30.16,NE,36,0.0,0.0,94,0.00,,,0.00,327.6,,2013-03-29 15:31:00,
2013-03-29 10:41:00,22.9,-99.9,30.16,North,7,0.0,0.0,94,0.00,,,0.00,339.5,,2013-03-29 15:41:00,
2013-03-29 10:51:00,25.0,-99.9,30.16,North,0,0.0,0.0,95,0.00,,,0.00,434.1,,2013-03-29 15:51:00,
2013-03-29 11:01:00,26.5,-99.9,30.15,NE,45,0.0,0.0,94,0.00,,,0.00,504.1,,2013-03-29 16:01:00,
2013-03-29 11:11:00,25.7,-99.9,30.15,NE,38,2.0,3.8,93,0.00,,,0.00,487.2,,2013-03-29 16:11:00,
2013-03-29 11:21:00,25.8,-99.9,30.15,East,80,1.0,2.1,94,0.00,,,0.00,473.9,,2013-03-29 16:21:00,
2013-03-29 11:31:00,26.8,-99.9,30.15,SE,124,0.0,0.0,94,0.00,,,0.00,554.3,,2013-03-29 16:31:00,
2013-03-29 11:41:00,28.5,-99.9,30.15,NNE,20,0.0,0.0,94,0.00,,,0.00,533.7,,2013-03-29 16:41:00,
2013-03-29 11:51:00,30.2,-99.9,30.14,North,349,1.0,3.8,92,0.00,,,0.00,702.5,,2013-03-29 16:51:00,
2013-03-29 12:01:00,28.5,-99.9,30.14,SW,231,0.0,2.1,92,0.00,,,0.00,692.5,,2013-03-29 17:01:00,
2013-03-29 12:11:00,29.9,-99.9,30.14,WSW,258,2.0,3.8,91,0.00,,,0.00,749.5,,2013-03-29 17:11:00,
2013-03-29 12:21:00,30.8,-99.9,30.13,WSW,250,0.0,0.0,91,0.00,,,0.00,645.6,,2013-03-29 17:21:00,
2013-03-29 12:31:00,31.9,-99.9,30.12,NW,312,0.0,2.1,90,0.00,,,0.00,697.7,,2013-03-29 17:31:00,
2013-03-29 12:41:00,32.4,-99.9,30.12,SSW,196,2.0,3.8,90,0.00,,,0.00,754.1,,2013-03-29 17:41:00,
2013-03-29 12:51:00,33.0,-99.9,30.11,ESE,107,0.0,2.1,89,0.00,,,0.00,753.4,,2013-03-29 17:51:00,
2013-03-29 13:01:00,33.3,-99.9,30.11,SSE,159,3.0,5.4,89,0.00,,,0.00,709.7,,2013-03-29 18:01:00,
2013-03-29 13:11:00,33.3,-99.9,30.11,East,97,4.0,5.4,85,0.00,,,0.00,761.7,,2013-03-29 18:11:00,
2013-03-29 13:21:00,34.6,-99.9,30.10,SSE,150,3.0,5.4,83,0.00,,,0.00,738.8,,2013-03-29 18:21:00,
2013-03-29 13:31:00,35.1,-99.9,30.10,ESE,102,3.0,5.4,81,0.00,,,0.00,758.9,,2013-03-29 18:31:00,
2013-03-29 13:41:00,34.1,-99.9,30.09,ENE,75,5.0,7.1,82,0.00,,,0.00,693.6,,2013-03-29 18:41:00,
2013-03-29 13:51:00,34.9,-99.9,30.09,ESE,106,2.0,5.4,82,0.00,,,0.00,655.5,,2013-03-29 18:51:00,
2013-03-29 14:01:00,35.4,-99.9,30.09,South,184,1.0,2.1,80,0.00,,,0.00,747.8,,2013-03-29 19:01:00,
2013-03-29 14:11:00,36.0,-99.9,30.09,East,95,4.0,5.4,80,0.00,,,0.00,473.5,,2013-03-29 19:11:00,
2013-03-29 14:21:00,35.3,-99.9,30.09,SSE,164,4.0,5.4,82,0.00,,,0.00,553.5,,2013-03-29 19:21:00,
2013-03-29 14:31:00,36.0,-99.9,30.09,SSE,158,3.0,3.8,80,0.00,,,0.00,585,,2013-03-29 19:31:00,
2013-03-29 14:41:00,35.9,-99.9,30.09,SSE,152,3.0,3.8,81,0.00,,,0.00,575.4,,2013-03-29 19:41:00,
2013-03-29 14:51:00,36.4,-99.9,30.08,SE,129,3.0,5.4,80,0.00,,,0.00,526.6,,2013-03-29 19:51:00,
2013-03-29 15:01:00,37.1,-99.9,30.08,SSE,162,3.0,5.4,79,0.00,,,0.00,505.6,,2013-03-29 20:01:00,
2013-03-29 15:11:00,35.5,-99.9,30.08,ESE,118,3.0,5.4,82,0.00,,,0.00,454.6,,2013-03-29 20:11:00,
2013-03-29 15:21:00,35.7,-99.9,30.08,ESE,115,2.0,3.8,82,0.00,,,0.00,375.8,,2013-03-29 20:21:00,
2013-03-29 15:31:00,36.3,-99.9,30.08,SE,132,0.0,2.1,82,0.00,,,0.00,281.7,,2013-03-29 20:31:00,
2013-03-29 15:41:00,35.4,-99.9,30.08,SSE,166,3.0,5.4,83,0.00,,,0.00,279.7,,2013-03-29 20:41:00,
2013-03-29 15:51:00,34.8,-99.9,30.07,SSE,166,4.0,5.4,85,0.00,,,0.00,215.8,,2013-03-29 20:51:00,
2013-03-29 16:01:00,33.8,-99.9,30.07,SE,129,1.0,3.8,87,0.00,,,0.00,155,,2013-03-29 21:01:00,
2013-03-29 16:11:00,33.2,-99.9,30.07,ESE,108,1.0,2.1,89,0.00,,,0.00,163.9,,2013-03-29 21:11:00,
2013-03-29 16:21:00,33.0,-99.9,30.05,ENE,75,3.0,5.4,89,0.00,,,0.00,250.1,,2013-03-29 21:21:00,
2013-03-29 16:31:00,33.6,-99.9,30.04,East,81,3.0,3.8,90,0.00,,,0.00,228.5,,2013-03-29 21:31:00,
2013-03-29 16:41:00,33.5,-99.9,30.04,ESE,120,1.0,3.8,90,0.00,,,0.00,206.8,,2013-03-29 21:41:00,
2013-03-29 16:51:00,34.7,-99.9,30.04,NE,40,1.0,3.8,87,0.00,,,0.00,176.3,,2013-03-29 21:51:00,
2013-03-29 17:01:00,33.9,-99.9,30.04,ESE,114,4.0,5.4,88,0.00,,,0.00,179,,2013-03-29 22:01:00,
2013-03-29 17:11:00,33.7,-99.9,30.03,ESE,111,5.0,8.8,89,0.00,,,0.00,360.8,,2013-03-29 22:11:00,
2013-03-29 17:21:00,35.3,-99.9,30.02,ESE,116,1.0,3.8,90,0.00,,,0.00,427.7,,2013-03-29 22:21:00,
2013-03-29 17:31:00,33.5,-99.9,30.02,East,94,5.0,7.1,89,0.00,,,0.00,240.6,,2013-03-29 22:31:00,
2013-03-29 17:41:00,33.8,-99.9,30.02,SSE,152,5.0,7.1,89,0.00,,,0.00,201.3,,2013-03-29 22:41:00,
2013-03-29 17:51:00,34.3,-99.9,30.04,SSW,209,2.0,3.8,89,0.00,,,0.00,186.9,,2013-03-29 22:51:00,
2013-03-29 18:01:00,34.5,-99.9,30.02,SE,128,0.0,3.8,87,0.00,,,0.00,182.1,,2013-03-29 23:01:00,
2013-03-29 18:11:00,33.9,-99.9,30.03,SSW,212,3.0,5.4,88,0.00,,,0.00,124.7,,2013-03-29 23:11:00,
2013-03-29 18:21:00,34.1,-99.9,30.02,ESE,120,3.0,5.4,87,0.00,,,0.00,177.4,,2013-03-29 23:21:00,
2013-03-29 18:31:00,33.8,-99.9,30.01,South,187,3.0,5.4,88,0.00,,,0.00,119.7,,2013-03-29 23:31:00,
2013-03-29 18:41:00,32.6,-99.9,30.01,ENE,62,4.0,7.1,90,0.00,,,0.00,93.3,,2013-03-29 23:41:00,
2013-03-29 18:51:00,32.4,-99.9,30.00,ENE,69,4.0,7.1,90,0.00,,,0.00,70.43,,2013-03-29 23:51:00,
2013-03-29 19:01:00,32.7,-99.9,29.99,East,88,2.0,3.8,90,0.00,,,0.00,62.81,,2013-03-30 00:01:00,
2013-03-29 19:11:00,33.0,-99.9,30.00,South,185,1.0,2.1,89,0.00,,,0.00,50.53,,2013-03-30 00:11:00,
2013-03-29 19:21:00,33.2,-99.9,30.00,South,184,2.0,2.1,89,0.00,,,0.00,34.83,,2013-03-30 00:21:00,
2013-03-29 19:31:00,32.7,-99.9,30.00,SSW,198,0.0,2.1,90,0.00,,,0.00,25,,2013-03-30 00:31:00,
2013-03-29 19:41:00,32.5,-99.9,30.00,ENE,72,0.0,3.8,91,0.00,,,0.00,14.18,,2013-03-30 00:41:00,
2013-03-29 19:51:00,32.3,-99.9,30.00,SW,230,0.0,0.0,91,0.00,,,0.00,6.319,,2013-03-30 00:51:00,
2013-03-29 20:01:00,32.4,-99.9,30.01,South,188,0.0,2.1,91,0.00,,,0.00,2.458,,2013-03-30 01:01:00,
2013-03-29 20:11:00,32.5,-99.9,30.00,SSW,210,3.0,3.8,91,0.00,,,0.00,0.61,,2013-03-30 01:11:00,
2013-03-29 20:21:00,32.4,-99.9,30.00,ESE,112,2.0,3.8,92,0.00,,,0.00,0.203,,2013-03-30 01:21:00,
2013-03-29 20:31:00,32.4,-99.9,29.99,NNE,29,4.0,5.4,92,0.00,,,0.00,0.979,,2013-03-30 01:31:00,
2013-03-29 20:41:00,32.4,-99.9,29.99,South,185,0.0,2.1,92,0.00,,,0.00,1.016,,2013-03-30 01:41:00,
2013-03-29 20:51:00,32.4,-99.9,29.99,NE,34,0.0,0.0,92,0.00,,,0.00,1.006,,2013-03-30 01:51:00,
2013-03-29 21:01:00,32.5,-99.9,29.99,NNE,27,0.0,0.0,92,0.00,,,0.00,1.016,,2013-03-30 02:01:00,
2013-03-29 21:11:00,32.2,-99.9,29.98,NE,43,4.0,5.4,93,0.00,,,0.00,1.016,,2013-03-30 02:11:00,
2013-03-29 21:21:00,32.1,-99.9,29.98,NE,53,4.0,5.4,92,0.00,,,0.00,1.016,,2013-03-30 02:21:00,
2013-03-29 21:31:00,31.9,-99.9,29.99,ESE,108,0.0,2.1,92,0.00,,,0.00,1.016,,2013-03-30 02:31:00,
2013-03-29 21:41:00,31.9,-99.9,29.99,NNE,17,1.0,3.8,93,0.00,,,0.00,1.016,,2013-03-30 02:41:00,
2013-03-29 21:51:00,32.0,-99.9,29.99,NNW,339,0.0,0.0,93,0.00,,,0.00,0.925,,2013-03-30 02:51:00,
2013-03-29 22:01:00,31.9,-99.9,29.98,NE,43,3.0,5.4,92,0.00,,,0.00,0.867,,2013-03-30 03:01:00,
2013-03-29 22:11:00,31.9,-99.9,29.98,NNE,22,3.0,5.4,93,0.00,,,0.00,0.83,,2013-03-30 03:11:00,
2013-03-29 22:21:00,31.8,-99.9,29.98,NNE,21,2.0,3.8,93,0.00,,,0.00,1.016,,2013-03-30 03:21:00,
2013-03-29 22:31:00,31.8,-99.9,30.00,NNW,347,4.0,5.4,93,0.00,,,0.00,1.016,,2013-03-30 03:31:00,
2013-03-29 22:41:00,31.8,-99.9,30.00,North,1,3.0,3.8,93,0.00,,,0.00,1.016,,2013-03-30 03:41:00,
2013-03-29 22:51:00,31.7,-99.9,29.98,NNE,21,4.0,5.4,93,0.00,,,0.00,1.091,,2013-03-30 03:51:00,
2013-03-29 23:01:00,31.9,-99.9,29.98,NNE,12,4.0,7.1,94,0.00,,,0.00,1.033,,2013-03-30 04:01:00,
2013-03-29 23:11:00,32.2,-99.9,29.98,NE,38,3.0,5.4,94,0.00,,,0.00,1.016,,2013-03-30 04:11:00,
2013-03-29 23:21:00,32.4,-99.9,29.98,NNW,348,3.0,3.8,94,0.00,,,0.00,1.016,,2013-03-30 04:21:00,
2013-03-29 23:31:00,32.5,-99.9,29.97,NE,43,3.0,5.4,94,0.00,,,0.00,1.006,,2013-03-30 04:31:00,
2013-03-29 23:41:00,32.5,-99.9,29.97,NNE,19,4.0,7.1,94,0.00,,,0.00,1.016,,2013-03-30 04:41:00,
2013-03-29 23:51:00,32.7,-99.9,29.96,North,3,3.0,5.4,94,0.00,,,0.00,1.016,,2013-03-30 04:51:00,